SWA245 KATL-KLAS

Flight info

Callsign SWA245
Flight time 4h 12m
Altitude 34000
Route CUTTN2 HANKO MEMFS TUL ALS CEZ DICEE TYEGR CHOWW4
Aircraft B738/M-SDE2E3FGHIRWXY/LB1

Departure

Time 2026-05-04 12:27
Airport Hartsfield Jackson Atlanta International Airport (KATL)

Arrival

Time 2026-05-04 16:40
Airport Harry Reid International Airport (KLAS)
Time Latitude Longitude Altitude Speed Heading
2026-05-04 11:52 33.63904 -84.43208 1005 ft 0 kts 269°
2026-05-04 12:14 33.63917 -84.43138 1005 ft 4 kts 214°
2026-05-04 12:15 33.63935 -84.43130 1005 ft 0 kts 180°
2026-05-04 12:18 33.63925 -84.43130 1005 ft 3 kts 180°
2026-05-04 12:18 33.63909 -84.43130 1005 ft 3 kts 180°
2026-05-04 12:18 33.63885 -84.43130 1005 ft 3 kts 180°
2026-05-04 12:19 33.63862 -84.43131 1005 ft 3 kts 180°
2026-05-04 12:19 33.63836 -84.43131 1005 ft 5 kts 180°
2026-05-04 12:19 33.63779 -84.43130 1005 ft 10 kts 179°
2026-05-04 12:19 33.63707 -84.43128 1005 ft 10 kts 169°
2026-05-04 12:20 33.63665 -84.43064 1005 ft 11 kts 99°
2026-05-04 12:20 33.63664 -84.42946 1005 ft 17 kts 89°
2026-05-04 12:20 33.63664 -84.42791 1005 ft 19 kts 92°
2026-05-04 12:20 33.63655 -84.42636 1006 ft 18 kts 90°
2026-05-04 12:21 33.63655 -84.42487 1006 ft 18 kts 90°
2026-05-04 12:21 33.63655 -84.42342 1006 ft 17 kts 90°
2026-05-04 12:21 33.63652 -84.42210 1006 ft 15 kts 101°
2026-05-04 12:21 33.63606 -84.42099 1006 ft 14 kts 120°
2026-05-04 12:22 33.63581 -84.41988 1005 ft 14 kts 90°
2026-05-04 12:22 33.63581 -84.41876 1005 ft 13 kts 90°
2026-05-04 12:22 33.63581 -84.41768 1005 ft 13 kts 90°
2026-05-04 12:22 33.63581 -84.41660 1005 ft 14 kts 89°
2026-05-04 12:23 33.63581 -84.41521 1004 ft 19 kts 90°
2026-05-04 12:23 33.63581 -84.41351 1004 ft 20 kts 89°
2026-05-04 12:23 33.63581 -84.41183 1005 ft 20 kts 90°
2026-05-04 12:23 33.63581 -84.41023 1005 ft 18 kts 89°
2026-05-04 12:24 33.63581 -84.40895 1005 ft 13 kts 90°
2026-05-04 12:24 33.63581 -84.40801 1006 ft 8 kts 90°
2026-05-04 12:24 33.63571 -84.40762 1006 ft 0 kts 131°
2026-05-04 12:25 33.63564 -84.40755 1006 ft 5 kts 138°
2026-05-04 12:25 33.63529 -84.40745 1006 ft 5 kts 176°
2026-05-04 12:25 33.63485 -84.40762 1006 ft 9 kts 225°
2026-05-04 12:26 33.63471 -84.40837 1006 ft 10 kts 268°
2026-05-04 12:26 33.63470 -84.40988 1006 ft 41 kts 270°
2026-05-04 12:26 33.63471 -84.41623 1004 ft 109 kts 270°
2026-05-04 12:26 33.63473 -84.42744 1012 ft 162 kts 270°
2026-05-04 12:27 33.63475 -84.44143 1576 ft 170 kts 269°
2026-05-04 12:27 33.63454 -84.45565 2373 ft 168 kts 268°
2026-05-04 12:27 33.63438 -84.46991 3084 ft 178 kts 270°
2026-05-04 12:27 33.63439 -84.48610 3363 ft 207 kts 270°
2026-05-04 12:28 33.63442 -84.50438 3642 ft 229 kts 270°
2026-05-04 12:28 33.63446 -84.52455 3927 ft 253 kts 270°
2026-05-04 12:28 33.63448 -84.54582 4654 ft 260 kts 270°
2026-05-04 12:28 33.63450 -84.56755 5531 ft 262 kts 270°
2026-05-04 12:29 33.63452 -84.58976 6296 ft 269 kts 270°
2026-05-04 12:29 33.63453 -84.61252 7033 ft 275 kts 270°
2026-05-04 12:29 33.63454 -84.63562 7818 ft 279 kts 270°
2026-05-04 12:29 33.63454 -84.65912 8595 ft 283 kts 271°
2026-05-04 12:30 33.63462 -84.68301 9358 ft 289 kts 271°
2026-05-04 12:30 33.63474 -84.70737 10110 ft 294 kts 271°
2026-05-04 12:30 33.63606 -84.73238 10472 ft 312 kts 285°
2026-05-04 12:30 33.64443 -84.75673 10849 ft 326 kts 297°
2026-05-04 12:31 33.65442 -84.78141 11550 ft 330 kts 296°
2026-05-04 12:31 33.66444 -84.80622 12406 ft 330 kts 296°
2026-05-04 12:31 33.67437 -84.83107 13254 ft 331 kts 296°
2026-05-04 12:31 33.68429 -84.85609 14057 ft 332 kts 295°
2026-05-04 12:32 33.69420 -84.88126 14799 ft 333 kts 295°
2026-05-04 12:32 33.71384 -84.93151 16380 ft 332 kts 295°
2026-05-04 12:32 33.72364 -84.95666 17153 ft 332 kts 295°
2026-05-04 12:33 33.73343 -84.98182 17904 ft 333 kts 295°
2026-05-04 12:33 33.74312 -85.00674 18625 ft 333 kts 295°
2026-05-04 12:33 33.75293 -85.03202 19204 ft 335 kts 295°
2026-05-04 12:33 33.76282 -85.05750 19767 ft 338 kts 295°
2026-05-04 12:34 33.77277 -85.08317 20341 ft 340 kts 295°
2026-05-04 12:34 33.78284 -85.10915 20915 ft 343 kts 295°
2026-05-04 12:34 33.79294 -85.13524 21481 ft 346 kts 295°
2026-05-04 12:34 33.80314 -85.16159 22040 ft 348 kts 295°
2026-05-04 12:35 33.81332 -85.18811 22590 ft 351 kts 292°
2026-05-04 12:35 33.81992 -85.21644 23091 ft 355 kts 277°
2026-05-04 12:35 33.82162 -85.24613 23665 ft 357 kts 274°
2026-05-04 12:35 33.82272 -85.27570 24110 ft 359 kts 274°
2026-05-04 12:36 33.82376 -85.30581 24561 ft 361 kts 274°
2026-05-04 12:36 33.82487 -85.33608 25022 ft 362 kts 274°
2026-05-04 12:36 33.82607 -85.36643 25472 ft 364 kts 274°
2026-05-04 12:36 33.82733 -85.39693 25901 ft 366 kts 274°
2026-05-04 12:37 33.82863 -85.42763 26329 ft 368 kts 274°
2026-05-04 12:37 33.82995 -85.45850 26767 ft 369 kts 274°
2026-05-04 12:37 33.83127 -85.48934 27203 ft 371 kts 274°
2026-05-04 12:37 33.83260 -85.52040 27615 ft 373 kts 274°
2026-05-04 12:38 33.83393 -85.55169 28011 ft 375 kts 274°
2026-05-04 12:38 33.83525 -85.58302 28402 ft 377 kts 274°
2026-05-04 12:38 33.83656 -85.61417 28789 ft 378 kts 274°
2026-05-04 12:38 33.83827 -85.64589 29156 ft 380 kts 278°
2026-05-04 12:39 33.84505 -85.67661 29511 ft 382 kts 289°
2026-05-04 12:39 33.85411 -85.70671 29891 ft 383 kts 289°
2026-05-04 12:39 33.86319 -85.73689 30243 ft 385 kts 288°
2026-05-04 12:39 33.87230 -85.76734 30514 ft 387 kts 288°
2026-05-04 12:40 33.88138 -85.79794 30786 ft 389 kts 288°
2026-05-04 12:40 33.89043 -85.82869 31065 ft 391 kts 288°
2026-05-04 12:40 33.89943 -85.85942 31298 ft 394 kts 288°
2026-05-04 12:40 33.90853 -85.89058 31570 ft 395 kts 288°
2026-05-04 12:41 33.91764 -85.92190 31837 ft 397 kts 288°
2026-05-04 12:41 33.92676 -85.95329 32090 ft 398 kts 288°
2026-05-04 12:41 33.93591 -85.98484 32349 ft 399 kts 288°
2026-05-04 12:41 33.94510 -86.01660 32578 ft 401 kts 288°
2026-05-04 12:42 33.95429 -86.04836 32807 ft 403 kts 288°
2026-05-04 12:42 33.96352 -86.08031 33039 ft 404 kts 288°
2026-05-04 12:42 33.97277 -86.11233 33261 ft 405 kts 288°
2026-05-04 12:42 33.98193 -86.14413 33475 ft 407 kts 288°
2026-05-04 12:43 33.99123 -86.17642 33685 ft 408 kts 288°
2026-05-04 12:43 34.00058 -86.20891 33912 ft 409 kts 288°
2026-05-04 12:43 34.00991 -86.24136 34126 ft 409 kts 288°
2026-05-04 12:44 34.02863 -86.30659 34110 ft 412 kts 288°
2026-05-04 12:44 34.04709 -86.37107 34109 ft 406 kts 288°
2026-05-04 12:45 34.06544 -86.43530 34115 ft 404 kts 288°
2026-05-04 12:45 34.08370 -86.49940 34107 ft 403 kts 288°
2026-05-04 12:46 34.10189 -86.56338 34107 ft 403 kts 288°
2026-05-04 12:46 34.12006 -86.62746 34107 ft 403 kts 288°
2026-05-04 12:47 34.13810 -86.69119 34109 ft 403 kts 288°
2026-05-04 12:47 34.15626 -86.75551 34110 ft 404 kts 288°
2026-05-04 12:48 34.17440 -86.81989 34110 ft 405 kts 288°
2026-05-04 12:48 34.19246 -86.88413 34117 ft 406 kts 287°
2026-05-04 12:49 34.21061 -86.94886 34102 ft 407 kts 287°
2026-05-04 12:49 34.22873 -87.01364 34106 ft 407 kts 288°
2026-05-04 12:50 34.24683 -87.07843 34108 ft 407 kts 288°
2026-05-04 12:50 34.26489 -87.14325 34098 ft 406 kts 288°
2026-05-04 12:51 34.28290 -87.20806 34087 ft 406 kts 288°
2026-05-04 12:51 34.30084 -87.27279 34075 ft 406 kts 288°
2026-05-04 12:52 34.31865 -87.33722 34069 ft 406 kts 288°
2026-05-04 12:52 34.33650 -87.40190 34070 ft 405 kts 288°
2026-05-04 12:53 34.35432 -87.46662 34061 ft 405 kts 288°
2026-05-04 12:53 34.37206 -87.53125 34054 ft 404 kts 288°
2026-05-04 12:54 34.38976 -87.59583 34060 ft 404 kts 288°
2026-05-04 12:54 34.40733 -87.66009 34048 ft 404 kts 288°
2026-05-04 12:55 34.42499 -87.72485 34055 ft 404 kts 288°
2026-05-04 12:55 34.44261 -87.78959 34046 ft 404 kts 288°
2026-05-04 12:56 34.46014 -87.85419 34072 ft 404 kts 288°
2026-05-04 12:56 34.47760 -87.91865 34059 ft 404 kts 287°
2026-05-04 12:57 34.49512 -87.98352 34054 ft 404 kts 287°
2026-05-04 12:57 34.51260 -88.04836 34058 ft 404 kts 287°
2026-05-04 12:58 34.53000 -88.11308 34051 ft 404 kts 288°
2026-05-04 12:58 34.54726 -88.17742 34058 ft 403 kts 288°
2026-05-04 12:59 34.56461 -88.24225 34056 ft 403 kts 287°
2026-05-04 12:59 34.58190 -88.30701 34056 ft 403 kts 287°
2026-05-04 13:00 34.59918 -88.37186 34056 ft 403 kts 287°
2026-05-04 13:00 34.61629 -88.43628 34059 ft 403 kts 287°
2026-05-04 13:01 34.63345 -88.50102 34059 ft 403 kts 287°
2026-05-04 13:01 34.65061 -88.56590 34055 ft 403 kts 287°
2026-05-04 13:02 34.66771 -88.63074 34055 ft 403 kts 287°
2026-05-04 13:02 34.68467 -88.69517 34057 ft 403 kts 287°
2026-05-04 13:03 34.70180 -88.76044 34056 ft 403 kts 287°
2026-05-04 13:03 34.71879 -88.82532 34053 ft 403 kts 287°
2026-05-04 13:04 34.73566 -88.88988 34060 ft 403 kts 287°
2026-05-04 13:04 34.75264 -88.95505 34041 ft 403 kts 287°
2026-05-04 13:05 34.76955 -89.02011 34034 ft 404 kts 287°
2026-05-04 13:05 34.78645 -89.08527 34031 ft 404 kts 287°
2026-05-04 13:06 34.80046 -89.13942 34030 ft 404 kts 287°
2026-05-04 13:06 34.82002 -89.21521 34031 ft 404 kts 287°
2026-05-04 13:07 34.83400 -89.26951 34019 ft 404 kts 287°
2026-05-04 13:07 34.85077 -89.33478 34024 ft 404 kts 287°
2026-05-04 13:08 34.86754 -89.40024 34019 ft 404 kts 287°
2026-05-04 13:08 34.88427 -89.46571 34023 ft 404 kts 287°
2026-05-04 13:09 34.90086 -89.53077 34022 ft 405 kts 287°
2026-05-04 13:09 34.91754 -89.59635 34024 ft 405 kts 287°
2026-05-04 13:10 34.93416 -89.66191 34025 ft 405 kts 287°
2026-05-04 13:10 34.95076 -89.72747 34028 ft 405 kts 287°
2026-05-04 13:11 34.96729 -89.79300 34028 ft 405 kts 286°
2026-05-04 13:11 34.98382 -89.85864 34028 ft 405 kts 286°
2026-05-04 13:12 35.00031 -89.92430 34036 ft 405 kts 286°
2026-05-04 13:12 35.01668 -89.98973 34037 ft 405 kts 286°
2026-05-04 13:13 35.03219 -90.05594 34006 ft 405 kts 285°
2026-05-04 13:13 35.04723 -90.12225 34007 ft 405 kts 285°
2026-05-04 13:14 35.06231 -90.18866 34009 ft 405 kts 285°
2026-05-04 13:14 35.07742 -90.25505 34009 ft 405 kts 285°
2026-05-04 13:15 35.09244 -90.32105 34006 ft 405 kts 285°
2026-05-04 13:15 35.10750 -90.38738 34000 ft 405 kts 285°
2026-05-04 13:16 35.12255 -90.45378 34000 ft 406 kts 285°
2026-05-04 13:16 35.13758 -90.52033 34000 ft 406 kts 285°
2026-05-04 13:17 35.15258 -90.58695 34003 ft 406 kts 285°
2026-05-04 13:17 35.16744 -90.65311 33997 ft 406 kts 285°
2026-05-04 13:18 35.18238 -90.71981 33999 ft 407 kts 285°
2026-05-04 13:18 35.19728 -90.78651 33992 ft 407 kts 285°
2026-05-04 13:19 35.21213 -90.85323 33999 ft 406 kts 285°
2026-05-04 13:19 35.22694 -90.91989 34003 ft 406 kts 285°
2026-05-04 13:20 35.24170 -90.98656 34002 ft 405 kts 285°
2026-05-04 13:20 35.25633 -91.05281 34011 ft 406 kts 284°
2026-05-04 13:21 35.27105 -91.11966 34009 ft 407 kts 284°
2026-05-04 13:21 35.28574 -91.18656 34011 ft 407 kts 285°
2026-05-04 13:22 35.30039 -91.25349 34013 ft 407 kts 284°
2026-05-04 13:22 35.31493 -91.32008 34014 ft 407 kts 284°
2026-05-04 13:23 35.32951 -91.38706 34003 ft 407 kts 284°
2026-05-04 13:23 35.34407 -91.45412 34006 ft 407 kts 284°
2026-05-04 13:24 35.35858 -91.52120 34005 ft 407 kts 284°
2026-05-04 13:24 35.37306 -91.58829 34004 ft 407 kts 284°
2026-05-04 13:25 35.39467 -91.68878 33998 ft 406 kts 284°
2026-05-04 13:25 35.40895 -91.75543 33997 ft 406 kts 284°
2026-05-04 13:26 35.42326 -91.82246 33993 ft 406 kts 284°
2026-05-04 13:26 35.43754 -91.88950 33976 ft 406 kts 284°
2026-05-04 13:27 35.45177 -91.95654 33972 ft 405 kts 284°
2026-05-04 13:27 35.46592 -92.02336 33963 ft 404 kts 284°
2026-05-04 13:28 35.47993 -92.08972 33972 ft 404 kts 284°
2026-05-04 13:28 35.49399 -92.15654 33980 ft 405 kts 284°
2026-05-04 13:29 35.50804 -92.22352 33987 ft 405 kts 284°
2026-05-04 13:29 35.52208 -92.29061 33992 ft 406 kts 284°
2026-05-04 13:30 35.53610 -92.35783 34000 ft 406 kts 284°
2026-05-04 13:30 35.54997 -92.42452 33998 ft 405 kts 284°
2026-05-04 13:31 35.56390 -92.49171 33999 ft 405 kts 284°
2026-05-04 13:31 35.57779 -92.55893 33996 ft 405 kts 284°
2026-05-04 13:32 35.59164 -92.62612 33994 ft 405 kts 284°
2026-05-04 13:32 35.60533 -92.69276 33979 ft 405 kts 284°
2026-05-04 13:33 35.61910 -92.75996 33954 ft 405 kts 284°
2026-05-04 13:33 35.63279 -92.82702 33931 ft 404 kts 284°
2026-05-04 13:34 35.64643 -92.89401 33930 ft 404 kts 284°
2026-05-04 13:34 35.65994 -92.96057 33917 ft 403 kts 284°
2026-05-04 13:35 35.68024 -93.06101 33920 ft 403 kts 284°
2026-05-04 13:36 35.69369 -93.12777 33920 ft 401 kts 284°
2026-05-04 13:36 35.70706 -93.19438 33924 ft 401 kts 284°
2026-05-04 13:37 35.72035 -93.26071 33927 ft 402 kts 284°
2026-05-04 13:37 35.73370 -93.32765 33923 ft 402 kts 284°
2026-05-04 13:38 35.74700 -93.39450 33923 ft 403 kts 284°
2026-05-04 13:38 35.76030 -93.46158 33917 ft 403 kts 284°
2026-05-04 13:39 35.77351 -93.52839 33916 ft 404 kts 284°
2026-05-04 13:39 35.78678 -93.59571 33920 ft 404 kts 284°
2026-05-04 13:40 35.79999 -93.66300 33912 ft 404 kts 284°
2026-05-04 13:40 35.81318 -93.73036 33914 ft 404 kts 284°
2026-05-04 13:41 35.82624 -93.79726 33917 ft 404 kts 284°
2026-05-04 13:41 35.83933 -93.86453 33911 ft 403 kts 284°
2026-05-04 13:42 35.85889 -93.96543 33909 ft 402 kts 284°
2026-05-04 13:42 35.87185 -94.03258 33939 ft 402 kts 284°
2026-05-04 13:43 35.88469 -94.09928 33955 ft 402 kts 284°
2026-05-04 13:43 35.89759 -94.16655 33952 ft 403 kts 284°
2026-05-04 13:44 35.91047 -94.23396 33945 ft 402 kts 284°
2026-05-04 13:44 35.92325 -94.30097 33937 ft 400 kts 284°
2026-05-04 13:45 35.93587 -94.36743 33935 ft 399 kts 284°
2026-05-04 13:45 35.94851 -94.43416 33935 ft 398 kts 284°
2026-05-04 13:46 35.96108 -94.50080 33929 ft 398 kts 284°
2026-05-04 13:46 35.97361 -94.56738 33927 ft 398 kts 284°
2026-05-04 13:47 35.98606 -94.63382 33926 ft 396 kts 285°
2026-05-04 13:47 35.99843 -94.70002 33901 ft 395 kts 285°
2026-05-04 13:48 36.01067 -94.76573 33898 ft 394 kts 285°
2026-05-04 13:48 36.02293 -94.83175 33899 ft 394 kts 285°
2026-05-04 13:49 36.03514 -94.89774 33895 ft 394 kts 285°
2026-05-04 13:49 36.04724 -94.96329 33872 ft 393 kts 285°
2026-05-04 13:50 36.05931 -95.02898 33881 ft 390 kts 285°
2026-05-04 13:50 36.07127 -95.09429 33888 ft 388 kts 285°
2026-05-04 13:51 36.08315 -95.15927 33885 ft 386 kts 285°
2026-05-04 13:51 36.09494 -95.22401 33879 ft 386 kts 285°
2026-05-04 13:52 36.11249 -95.32080 33877 ft 386 kts 285°
2026-05-04 13:53 36.12417 -95.38552 33874 ft 385 kts 286°
2026-05-04 13:53 36.13584 -95.45027 33883 ft 385 kts 285°
2026-05-04 13:54 36.15330 -95.54766 33877 ft 387 kts 285°
2026-05-04 13:55 36.17067 -95.64507 33860 ft 389 kts 285°
2026-05-04 13:55 36.18809 -95.74320 33865 ft 387 kts 286°
2026-05-04 13:56 36.19762 -95.79732 33874 ft 386 kts 285°
2026-05-04 13:57 36.21320 -95.89489 33871 ft 384 kts 285°
2026-05-04 13:58 36.23343 -96.02459 33868 ft 383 kts 285°
2026-05-04 13:58 36.24854 -96.12127 33842 ft 381 kts 285°
2026-05-04 13:59 36.25854 -96.18553 33839 ft 379 kts 285°
2026-05-04 14:00 36.27343 -96.28148 33837 ft 377 kts 285°
2026-05-04 14:00 36.28822 -96.37734 33834 ft 377 kts 285°
2026-05-04 14:01 36.29803 -96.44118 33821 ft 377 kts 285°
2026-05-04 14:02 36.31258 -96.53638 33811 ft 375 kts 285°
2026-05-04 14:02 36.32225 -96.59996 33838 ft 375 kts 285°
2026-05-04 14:03 36.33190 -96.66360 33814 ft 375 kts 285°
2026-05-04 14:03 36.34153 -96.72735 33810 ft 376 kts 285°
2026-05-04 14:04 36.35588 -96.82280 33816 ft 376 kts 285°
2026-05-04 14:04 36.36543 -96.88666 33814 ft 375 kts 284°
2026-05-04 14:05 36.37962 -96.98198 33815 ft 375 kts 284°
2026-05-04 14:06 36.38905 -97.04565 33815 ft 375 kts 284°
2026-05-04 14:06 36.39845 -97.10933 33810 ft 375 kts 284°
2026-05-04 14:07 36.40779 -97.17287 33807 ft 375 kts 284°
2026-05-04 14:07 36.41713 -97.23660 33796 ft 375 kts 284°
2026-05-04 14:08 36.42637 -97.29995 33777 ft 375 kts 284°
2026-05-04 14:08 36.43563 -97.36365 33767 ft 375 kts 284°
2026-05-04 14:09 36.44947 -97.45934 33766 ft 375 kts 284°
2026-05-04 14:10 36.46316 -97.55454 33796 ft 375 kts 284°
2026-05-04 14:10 36.47229 -97.61835 33793 ft 374 kts 284°
2026-05-04 14:11 36.48137 -97.68205 33798 ft 374 kts 284°
2026-05-04 14:11 36.49492 -97.77760 33839 ft 374 kts 284°
2026-05-04 14:12 36.50392 -97.84138 33815 ft 374 kts 283°
2026-05-04 14:13 36.51731 -97.93677 33769 ft 375 kts 283°
2026-05-04 14:13 36.52622 -98.00054 33761 ft 374 kts 283°
2026-05-04 14:14 36.53511 -98.06445 33756 ft 374 kts 283°
2026-05-04 14:14 36.54829 -98.15966 33755 ft 373 kts 283°
2026-05-04 14:15 36.56579 -98.28695 33737 ft 373 kts 283°
2026-05-04 14:16 36.57881 -98.38237 33726 ft 372 kts 283°
2026-05-04 14:17 36.59173 -98.47768 33745 ft 372 kts 283°
2026-05-04 14:18 36.60458 -98.57298 33747 ft 372 kts 283°
2026-05-04 14:19 36.62156 -98.69989 33756 ft 372 kts 283°
2026-05-04 14:19 36.62996 -98.76303 33747 ft 371 kts 282°
2026-05-04 14:20 36.63834 -98.82635 33749 ft 371 kts 282°
2026-05-04 14:20 36.64670 -98.88975 33741 ft 370 kts 282°
2026-05-04 14:21 36.65916 -98.98473 33731 ft 371 kts 282°
2026-05-04 14:21 36.66744 -99.04823 33716 ft 372 kts 282°
2026-05-04 14:22 36.67569 -99.11177 33691 ft 371 kts 282°
2026-05-04 14:22 36.68386 -99.17494 33707 ft 371 kts 282°
2026-05-04 14:23 36.69614 -99.27037 33690 ft 371 kts 282°
2026-05-04 14:24 36.70429 -99.33408 33689 ft 371 kts 282°
2026-05-04 14:24 36.71233 -99.39725 33689 ft 371 kts 282°
2026-05-04 14:25 36.72040 -99.46084 33693 ft 371 kts 282°
2026-05-04 14:25 36.73242 -99.55618 33684 ft 370 kts 281°
2026-05-04 14:26 36.74034 -99.61929 33686 ft 370 kts 281°
2026-05-04 14:26 36.74827 -99.68280 33690 ft 371 kts 281°
2026-05-04 14:27 36.75619 -99.74650 33687 ft 371 kts 281°
2026-05-04 14:27 36.76406 -99.81009 33685 ft 371 kts 281°
2026-05-04 14:28 36.77185 -99.87333 33678 ft 370 kts 281°
2026-05-04 14:28 36.77964 -99.93682 33683 ft 369 kts 281°
2026-05-04 14:29 36.79507 -100.06352 33695 ft 369 kts 281°
2026-05-04 14:30 36.80268 -100.12643 33721 ft 368 kts 281°
2026-05-04 14:31 36.81413 -100.22156 33688 ft 370 kts 281°
2026-05-04 14:32 36.82926 -100.34842 33698 ft 369 kts 281°
2026-05-04 14:32 36.83672 -100.41135 33702 ft 368 kts 281°
2026-05-04 14:33 36.84419 -100.47471 33706 ft 368 kts 281°
2026-05-04 14:33 36.85161 -100.53790 33705 ft 368 kts 281°
2026-05-04 14:34 36.85901 -100.60124 33714 ft 366 kts 280°
2026-05-04 14:34 36.86627 -100.66371 33728 ft 365 kts 280°
2026-05-04 14:35 36.87353 -100.72641 33762 ft 364 kts 280°
2026-05-04 14:35 36.88074 -100.78903 33777 ft 364 kts 280°
2026-05-04 14:36 36.88792 -100.85163 33792 ft 363 kts 280°
2026-05-04 14:36 36.89502 -100.91386 33797 ft 363 kts 280°
2026-05-04 14:37 36.90211 -100.97631 33800 ft 363 kts 280°
2026-05-04 14:37 36.90919 -101.03892 33802 ft 363 kts 280°
2026-05-04 14:38 36.91623 -101.10151 33793 ft 363 kts 280°
2026-05-04 14:38 36.92323 -101.16408 33777 ft 364 kts 280°
2026-05-04 14:39 36.93020 -101.22664 33761 ft 364 kts 280°
2026-05-04 14:39 36.93710 -101.28894 33784 ft 364 kts 280°
2026-05-04 14:40 36.94748 -101.38313 33770 ft 365 kts 280°
2026-05-04 14:40 36.95436 -101.44597 33774 ft 364 kts 280°
2026-05-04 14:41 36.96120 -101.50879 33764 ft 364 kts 280°
2026-05-04 14:42 36.97478 -101.63446 33807 ft 364 kts 280°
2026-05-04 14:42 36.98148 -101.69688 33829 ft 364 kts 279°
2026-05-04 14:43 36.98817 -101.75956 33871 ft 363 kts 279°
2026-05-04 14:43 36.99482 -101.82220 33877 ft 363 kts 279°
2026-05-04 14:44 37.00143 -101.88471 33882 ft 362 kts 279°
2026-05-04 14:44 37.00689 -101.93662 33879 ft 362 kts 279°
2026-05-04 14:45 37.01344 -101.99925 33876 ft 362 kts 279°
2026-05-04 14:45 37.01996 -102.06183 33830 ft 362 kts 278°
2026-05-04 14:46 37.02644 -102.12439 33809 ft 362 kts 278°
2026-05-04 14:46 37.03284 -102.18654 33775 ft 363 kts 278°
2026-05-04 14:47 37.03927 -102.24925 33692 ft 363 kts 278°
2026-05-04 14:47 37.04567 -102.31202 33679 ft 363 kts 278°
2026-05-04 14:48 37.05204 -102.37482 33695 ft 363 kts 278°
2026-05-04 14:48 37.05838 -102.43765 33689 ft 363 kts 278°
2026-05-04 14:49 37.06462 -102.49994 33713 ft 362 kts 278°
2026-05-04 14:49 37.07087 -102.56257 33702 ft 362 kts 278°
2026-05-04 14:50 37.07708 -102.62517 33708 ft 362 kts 278°
2026-05-04 14:50 37.08326 -102.68775 33707 ft 362 kts 278°
2026-05-04 14:51 37.08942 -102.75053 33711 ft 362 kts 278°
2026-05-04 14:51 37.09548 -102.81262 33722 ft 362 kts 277°
2026-05-04 14:52 37.10156 -102.87524 33722 ft 362 kts 277°
2026-05-04 14:52 37.10762 -102.93797 33733 ft 362 kts 277°
2026-05-04 14:53 37.11363 -103.00059 33732 ft 362 kts 277°
2026-05-04 14:53 37.11962 -103.06340 33747 ft 362 kts 277°
2026-05-04 14:54 37.12554 -103.12579 33746 ft 363 kts 277°
2026-05-04 14:54 37.13147 -103.18861 33732 ft 363 kts 276°
2026-05-04 14:55 37.13738 -103.25162 33754 ft 364 kts 276°
2026-05-04 14:55 37.14326 -103.31466 33759 ft 365 kts 276°
2026-05-04 14:56 37.14912 -103.37778 33760 ft 365 kts 276°
2026-05-04 14:56 37.15491 -103.44059 33760 ft 364 kts 276°
2026-05-04 14:57 37.16069 -103.50372 33735 ft 364 kts 276°
2026-05-04 14:57 37.16643 -103.56671 33755 ft 363 kts 275°
2026-05-04 14:58 37.17213 -103.62958 33766 ft 363 kts 276°
2026-05-04 14:58 37.17778 -103.69246 33767 ft 363 kts 276°
2026-05-04 14:59 37.18339 -103.75514 33766 ft 363 kts 276°
2026-05-04 15:00 37.19178 -103.84962 33752 ft 363 kts 276°
2026-05-04 15:00 37.19733 -103.91256 33766 ft 362 kts 275°
2026-05-04 15:01 37.20554 -104.00642 33750 ft 359 kts 275°
2026-05-04 15:01 37.21094 -104.06865 33871 ft 358 kts 275°
2026-05-04 15:02 37.21629 -104.13067 33914 ft 357 kts 275°
2026-05-04 15:02 37.22158 -104.19242 33953 ft 358 kts 275°
2026-05-04 15:03 37.22687 -104.25454 33968 ft 359 kts 275°
2026-05-04 15:03 37.23217 -104.31716 33984 ft 362 kts 275°
2026-05-04 15:04 37.23745 -104.37995 33985 ft 365 kts 275°
2026-05-04 15:04 37.24276 -104.44345 33980 ft 367 kts 275°
2026-05-04 15:05 37.24805 -104.50719 33953 ft 367 kts 275°
2026-05-04 15:05 37.25331 -104.57099 33918 ft 367 kts 275°
2026-05-04 15:06 37.25854 -104.63474 33878 ft 366 kts 275°
2026-05-04 15:07 37.26625 -104.72974 33847 ft 366 kts 275°
2026-05-04 15:07 37.27138 -104.79342 33814 ft 366 kts 275°
2026-05-04 15:08 37.27648 -104.85716 33808 ft 366 kts 275°
2026-05-04 15:08 37.28154 -104.92088 33813 ft 366 kts 275°
2026-05-04 15:09 37.28653 -104.98407 33825 ft 366 kts 275°
2026-05-04 15:09 37.29153 -105.04787 33842 ft 367 kts 274°
2026-05-04 15:10 37.29898 -105.14377 33878 ft 367 kts 274°
2026-05-04 15:11 37.30635 -105.23979 33888 ft 369 kts 274°
2026-05-04 15:11 37.31122 -105.30355 33902 ft 368 kts 274°
2026-05-04 15:12 37.31603 -105.36703 33905 ft 360 kts 274°
2026-05-04 15:12 37.32069 -105.42902 33902 ft 357 kts 274°
2026-05-04 15:13 37.32531 -105.49105 33942 ft 356 kts 274°
2026-05-04 15:13 37.32989 -105.55294 33990 ft 355 kts 274°
2026-05-04 15:14 37.33444 -105.61491 34028 ft 356 kts 274°
2026-05-04 15:14 37.33896 -105.67685 34069 ft 356 kts 273°
2026-05-04 15:15 37.34344 -105.73857 34090 ft 356 kts 273°
2026-05-04 15:15 37.34790 -105.80056 34119 ft 356 kts 273°
2026-05-04 15:16 37.35149 -105.89365 34130 ft 355 kts 270°
2026-05-04 15:16 37.35284 -105.95576 33921 ft 356 kts 270°
2026-05-04 15:17 37.35353 -105.98691 33915 ft 356 kts 271°
2026-05-04 15:17 37.35571 -106.07973 33916 ft 355 kts 270°
2026-05-04 15:18 37.35718 -106.14187 33920 ft 356 kts 270°
2026-05-04 15:19 37.35935 -106.23529 33914 ft 356 kts 270°
2026-05-04 15:19 37.36147 -106.32862 33925 ft 355 kts 270°
2026-05-04 15:20 37.36283 -106.39033 33951 ft 355 kts 270°
2026-05-04 15:20 37.36416 -106.45252 33936 ft 355 kts 270°
2026-05-04 15:21 37.36545 -106.51460 33952 ft 355 kts 270°
2026-05-04 15:22 37.36732 -106.60761 33945 ft 356 kts 269°
2026-05-04 15:22 37.36914 -106.70098 33954 ft 355 kts 269°
2026-05-04 15:23 37.37031 -106.76314 33933 ft 356 kts 269°
2026-05-04 15:23 37.37145 -106.82517 33966 ft 355 kts 269°
2026-05-04 15:24 37.37253 -106.88676 34112 ft 354 kts 269°
2026-05-04 15:24 37.37367 -106.94871 34140 ft 354 kts 269°
2026-05-04 15:25 37.37468 -107.01074 34149 ft 355 kts 269°
2026-05-04 15:26 37.37614 -107.10340 34160 ft 354 kts 269°
2026-05-04 15:26 37.37755 -107.19654 34104 ft 355 kts 269°
2026-05-04 15:27 37.37889 -107.28944 34071 ft 354 kts 269°
2026-05-04 15:28 37.38019 -107.38201 34028 ft 354 kts 269°
2026-05-04 15:29 37.38136 -107.47492 33958 ft 354 kts 268°
2026-05-04 15:30 37.38387 -107.69179 33954 ft 354 kts 268°
2026-05-04 15:31 37.38478 -107.78402 33944 ft 352 kts 267°
2026-05-04 15:32 37.38626 -107.93836 33982 ft 351 kts 267°
2026-05-04 15:34 37.38743 -108.09228 33928 ft 354 kts 266°
2026-05-04 15:34 37.38767 -108.17479 33948 ft 356 kts 268°
2026-05-04 15:35 37.38859 -108.26848 33962 ft 357 kts 267°
2026-05-04 15:36 37.38915 -108.36178 33998 ft 356 kts 267°
2026-05-04 15:36 37.38945 -108.42410 34035 ft 355 kts 267°
2026-05-04 15:37 37.38972 -108.48641 34047 ft 356 kts 266°
2026-05-04 15:37 37.38996 -108.54864 34064 ft 356 kts 266°
2026-05-04 15:38 37.38783 -108.61027 34074 ft 354 kts 264°
2026-05-04 15:38 37.38435 -108.67215 34073 ft 354 kts 263°
2026-05-04 15:39 37.38083 -108.73393 34072 ft 355 kts 264°
2026-05-04 15:39 37.37738 -108.79600 33922 ft 356 kts 263°
2026-05-04 15:40 37.37566 -108.82715 33916 ft 357 kts 263°
2026-05-04 15:40 37.37220 -108.88930 33902 ft 359 kts 263°
2026-05-04 15:41 37.36870 -108.95197 33903 ft 358 kts 263°
2026-05-04 15:41 37.36518 -109.01416 33898 ft 358 kts 263°
2026-05-04 15:42 37.36163 -109.07652 33898 ft 357 kts 263°
2026-05-04 15:42 37.35805 -109.13879 33899 ft 357 kts 263°
2026-05-04 15:43 37.35443 -109.20109 33922 ft 357 kts 263°
2026-05-04 15:43 37.35078 -109.26337 33942 ft 357 kts 263°
2026-05-04 15:44 37.34710 -109.32556 33947 ft 357 kts 263°
2026-05-04 15:44 37.34341 -109.38735 33966 ft 357 kts 263°
2026-05-04 15:45 37.33966 -109.44965 33966 ft 357 kts 263°
2026-05-04 15:45 37.33588 -109.51198 33952 ft 357 kts 262°
2026-05-04 15:46 37.33210 -109.57367 33949 ft 357 kts 262°
2026-05-04 15:46 37.32826 -109.63586 33944 ft 356 kts 262°
2026-05-04 15:47 37.32439 -109.69793 33892 ft 356 kts 262°
2026-05-04 15:47 37.32050 -109.75995 33889 ft 356 kts 262°
2026-05-04 15:48 37.31657 -109.82198 33894 ft 356 kts 262°
2026-05-04 15:48 37.31060 -109.91517 33886 ft 357 kts 262°
2026-05-04 15:49 37.30658 -109.97729 33889 ft 357 kts 262°
2026-05-04 15:49 37.30255 -110.03915 33880 ft 357 kts 262°
2026-05-04 15:50 37.29845 -110.10149 33880 ft 358 kts 262°
2026-05-04 15:50 37.29431 -110.16396 33864 ft 358 kts 262°
2026-05-04 15:51 37.29015 -110.22632 33862 ft 359 kts 262°
2026-05-04 15:51 37.28596 -110.28846 33863 ft 359 kts 261°
2026-05-04 15:52 37.28172 -110.35090 33865 ft 359 kts 261°
2026-05-04 15:52 37.27746 -110.41329 33866 ft 359 kts 261°
2026-05-04 15:53 37.27315 -110.47580 33847 ft 359 kts 261°
2026-05-04 15:53 37.26879 -110.53846 33852 ft 362 kts 261°
2026-05-04 15:54 37.26440 -110.60125 33862 ft 361 kts 261°
2026-05-04 15:54 37.25996 -110.66413 33862 ft 362 kts 261°
2026-05-04 15:55 37.25550 -110.72707 33850 ft 361 kts 261°
2026-05-04 15:55 37.25102 -110.78954 33872 ft 361 kts 261°
2026-05-04 15:56 37.24648 -110.85236 33860 ft 361 kts 261°
2026-05-04 15:56 37.24193 -110.91512 33859 ft 360 kts 261°
2026-05-04 15:57 37.23735 -110.97769 33842 ft 360 kts 261°
2026-05-04 15:57 37.23277 -111.03984 33851 ft 356 kts 261°
2026-05-04 15:58 37.22818 -111.10148 33861 ft 358 kts 261°
2026-05-04 15:58 37.22353 -111.16378 33846 ft 360 kts 261°
2026-05-04 15:59 37.21882 -111.22638 33851 ft 360 kts 261°
2026-05-04 15:59 37.21585 -111.28927 33863 ft 361 kts 263°
2026-05-04 16:00 37.21369 -111.35219 33843 ft 359 kts 263°
2026-05-04 16:00 37.21135 -111.41461 33893 ft 359 kts 263°
2026-05-04 16:01 37.20884 -111.47697 33900 ft 356 kts 263°
2026-05-04 16:01 37.20626 -111.53929 33898 ft 358 kts 263°
2026-05-04 16:02 37.20364 -111.60187 33851 ft 360 kts 263°
2026-05-04 16:03 37.19965 -111.69566 33850 ft 360 kts 263°
2026-05-04 16:03 37.19243 -111.75733 33865 ft 356 kts 251°
2026-05-04 16:04 37.17638 -111.81622 33852 ft 356 kts 250°
2026-05-04 16:04 37.15245 -111.90378 33861 ft 354 kts 250°
2026-05-04 16:05 37.13660 -111.96226 33861 ft 354 kts 251°
2026-05-04 16:06 37.11295 -112.04964 33855 ft 353 kts 250°
2026-05-04 16:07 37.08132 -112.16614 33852 ft 353 kts 250°
2026-05-04 16:08 37.04969 -112.28214 33857 ft 353 kts 250°
2026-05-04 16:09 37.00984 -112.42760 33855 ft 353 kts 250°
2026-05-04 16:10 36.97794 -112.54333 33858 ft 353 kts 249°
2026-05-04 16:11 36.94581 -112.65923 33903 ft 352 kts 249°
2026-05-04 16:12 36.89752 -112.83263 33987 ft 352 kts 249°
2026-05-04 16:13 36.86521 -112.94791 34010 ft 352 kts 249°
2026-05-04 16:14 36.83280 -113.06308 33994 ft 352 kts 249°
2026-05-04 16:16 36.79217 -113.20682 32929 ft 343 kts 248°
2026-05-04 16:16 36.76880 -113.28920 31449 ft 330 kts 249°
2026-05-04 16:17 36.75353 -113.34285 30476 ft 326 kts 249°
2026-05-04 16:18 36.73093 -113.42209 28943 ft 319 kts 249°
2026-05-04 16:18 36.72352 -113.44802 28479 ft 316 kts 249°
2026-05-04 16:19 36.70154 -113.52511 27089 ft 328 kts 249°
2026-05-04 16:19 36.68576 -113.58038 26087 ft 339 kts 249°
2026-05-04 16:20 36.66226 -113.66262 24625 ft 333 kts 249°
2026-05-04 16:20 36.64674 -113.71678 23670 ft 332 kts 249°
2026-05-04 16:21 36.62356 -113.79751 22163 ft 329 kts 249°
2026-05-04 16:22 36.60818 -113.85094 21235 ft 325 kts 249°
2026-05-04 16:22 36.58706 -113.92068 20023 ft 321 kts 240°
2026-05-04 16:23 36.54673 -113.98698 18684 ft 320 kts 232°
2026-05-04 16:24 36.49229 -114.07387 16950 ft 314 kts 232°
2026-05-04 16:25 36.46576 -114.11649 16106 ft 312 kts 231°
2026-05-04 16:26 36.41420 -114.19929 15201 ft 286 kts 231°
2026-05-04 16:26 36.37870 -114.25577 14535 ft 274 kts 230°
2026-05-04 16:27 36.35503 -114.29284 13919 ft 274 kts 229°
2026-05-04 16:28 36.31940 -114.34865 12898 ft 275 kts 229°
2026-05-04 16:28 36.28391 -114.40423 11956 ft 274 kts 230°
2026-05-04 16:29 36.23648 -114.47792 10691 ft 273 kts 228°
2026-05-04 16:30 36.20113 -114.53207 10002 ft 264 kts 228°
2026-05-04 16:31 36.17822 -114.56715 9511 ft 261 kts 227°
2026-05-04 16:31 36.14408 -114.61936 8806 ft 256 kts 227°
2026-05-04 16:32 36.11061 -114.67045 8407 ft 249 kts 227°
2026-05-04 16:33 36.08947 -114.70271 8146 ft 236 kts 227°
2026-05-04 16:33 36.07350 -114.73677 7812 ft 236 kts 257°
2026-05-04 16:34 36.07297 -114.77765 7302 ft 239 kts 265°
2026-05-04 16:34 36.07319 -114.79827 7042 ft 240 kts 266°
2026-05-04 16:35 36.07375 -114.85923 6204 ft 232 kts 266°
2026-05-04 16:35 36.07412 -114.91616 5352 ft 213 kts 264°
2026-05-04 16:36 36.07406 -114.93415 5080 ft 203 kts 264°
2026-05-04 16:36 36.07398 -114.96728 4564 ft 181 kts 264°
2026-05-04 16:37 36.07390 -114.99665 4154 ft 161 kts 264°
2026-05-04 16:37 36.07386 -115.01079 3922 ft 164 kts 264°
2026-05-04 16:37 36.07379 -115.03848 3494 ft 159 kts 264°
2026-05-04 16:38 36.07356 -115.06567 3090 ft 158 kts 266°
2026-05-04 16:39 36.07377 -115.10605 2443 ft 156 kts 262°
2026-05-04 16:39 36.07371 -115.13300 2070 ft 151 kts 262°
2026-05-04 16:40 36.07366 -115.14839 2094 ft 41 kts 270°
2026-05-04 16:40 36.07419 -115.15394 2105 ft 23 kts 294°
2026-05-04 16:41 36.07524 -115.15619 2109 ft 12 kts 316°
2026-05-04 16:41 36.07733 -115.15820 2118 ft 17 kts 346°
2026-05-04 16:42 36.08055 -115.15826 2108 ft 15 kts 360°
2026-05-04 16:43 36.08163 -115.15713 2102 ft 14 kts 89°
2026-05-04 16:43 36.08161 -115.15489 2097 ft 8 kts 91°
2026-05-04 16:43 36.08152 -115.15418 2097 ft 8 kts 107°
2026-05-04 16:44 36.08155 -115.15202 2096 ft 5 kts 14°
2026-05-04 16:45 36.08225 -115.15202 2096 ft 4 kts 354°
2026-05-04 16:46 36.08267 -115.15223 2096 ft 0 kts 334°